Вернуться в каталог

FENGYUN 1C DEB

АктивенPO
NORAD 31019·DEBRIS·🇨🇳 China

Запущен May 10, 1999 с Taiyuan Satellite Launch Center

Loading…

Ближайшие Пролёты (ближайшие 24 часа)

TLE

СвежийSource: Space-Track

Эпоха: Sep 14, 2026, 06:52 UTC

1 31019U 99025BDM 26257.28649896 -.00000387  00000-0 -10022-2 0  9990
2 31019  98.7304   6.6335 1109881 112.0438 287.7616 11.83653553584405

Отслеживайте FENGYUN 1C DEB в реальном времени с AllMySat

Download on the App Store